THY2332 LTFM-LTBJ

Flight info

Callsign THY2332
Flight time 0h 43m
Altitude 33000
Route IVGUS1E/36 IVGUS UM19 OVZOK
Aircraft A20N/M-SDE2E3FGHIRWXY/LB1

Departure

Time 2026-05-05 20:04
Airport İstanbul Airport (LTFM)

Arrival

Time 2026-05-05 20:47
Airport Adnan Menderes International Airport (LTBJ)
Time Latitude Longitude Altitude Speed Heading
2026-05-05 19:48 41.25889 28.75029 334 ft 0 kts 250°
2026-05-05 19:57 41.25889 28.75030 334 ft 0 kts 250°
2026-05-05 19:58 41.25894 28.75050 330 ft 2 kts 256°
2026-05-05 19:58 41.25897 28.75072 329 ft 2 kts 263°
2026-05-05 19:58 41.25898 28.75094 329 ft 2 kts 276°
2026-05-05 19:58 41.25894 28.75115 329 ft 2 kts 301°
2026-05-05 19:59 41.25883 28.75131 331 ft 2 kts 329°
2026-05-05 19:59 41.25871 28.75139 329 ft 1 kts 342°
2026-05-05 19:59 41.25870 28.75140 330 ft 0 kts 342°
2026-05-05 19:59 41.25870 28.75139 330 ft 0 kts 342°
2026-05-05 20:01 41.25886 28.75133 331 ft 7 kts 342°
2026-05-05 20:01 41.25960 28.75099 332 ft 15 kts 342°
2026-05-05 20:01 41.26076 28.75045 332 ft 20 kts 340°
2026-05-05 20:01 41.26166 28.75004 332 ft 15 kts 342°
2026-05-05 20:02 41.26244 28.75063 334 ft 15 kts 85°
2026-05-05 20:02 41.26246 28.75225 334 ft 20 kts 89°
2026-05-05 20:02 41.26249 28.75436 334 ft 25 kts 88°
2026-05-05 20:02 41.26254 28.75619 329 ft 12 kts 79°
2026-05-05 20:03 41.26268 28.75660 333 ft 1 kts 31°
2026-05-05 20:03 41.26379 28.75658 332 ft 53 kts 355°
2026-05-05 20:03 41.27060 28.75644 333 ft 136 kts 359°
2026-05-05 20:03 41.28139 28.75632 751 ft 162 kts 359°
2026-05-05 20:04 41.29311 28.75645 1573 ft 172 kts
2026-05-05 20:04 41.30480 28.75652 2576 ft 169 kts
2026-05-05 20:04 41.31591 28.76293 3237 ft 187 kts 41°
2026-05-05 20:04 41.32240 28.77923 3834 ft 219 kts 77°
2026-05-05 20:05 41.32055 28.80057 4645 ft 251 kts 109°
2026-05-05 20:05 41.31046 28.82065 5594 ft 276 kts 126°
2026-05-05 20:05 41.29812 28.84072 6926 ft 283 kts 126°
2026-05-05 20:05 41.28548 28.86119 8354 ft 288 kts 126°
2026-05-05 20:06 41.27256 28.88210 9744 ft 296 kts 126°
2026-05-05 20:06 41.25873 28.90316 10836 ft 315 kts 135°
2026-05-05 20:06 41.23914 28.91885 11612 ft 345 kts 159°
2026-05-05 20:06 41.21527 28.92388 12471 ft 362 kts 181°
2026-05-05 20:07 41.18974 28.92076 13482 ft 374 kts 186°
2026-05-05 20:07 41.16371 28.91714 14621 ft 378 kts 186°
2026-05-05 20:07 41.13732 28.91349 15740 ft 383 kts 186°
2026-05-05 20:07 41.11052 28.90979 16822 ft 388 kts 186°
2026-05-05 20:08 41.08344 28.90603 17908 ft 394 kts 186°
2026-05-05 20:08 41.05605 28.90211 18887 ft 399 kts 188°
2026-05-05 20:08 41.02903 28.89284 19822 ft 402 kts 203°
2026-05-05 20:08 41.00492 28.87411 20759 ft 405 kts 218°
2026-05-05 20:09 40.98300 28.85104 21639 ft 410 kts 220°
2026-05-05 20:09 40.96089 28.82663 22561 ft 414 kts 221°
2026-05-05 20:09 40.93873 28.80192 23451 ft 419 kts 221°
2026-05-05 20:09 40.91622 28.77690 24224 ft 424 kts 221°
2026-05-05 20:10 40.89341 28.75173 24942 ft 429 kts 220°
2026-05-05 20:10 40.87024 28.72627 25624 ft 434 kts 220°
2026-05-05 20:10 40.84691 28.70072 26329 ft 438 kts 220°
2026-05-05 20:10 40.82325 28.67485 26998 ft 443 kts 220°
2026-05-05 20:11 40.79936 28.64875 27671 ft 447 kts 220°
2026-05-05 20:11 40.77525 28.62243 28296 ft 451 kts 220°
2026-05-05 20:11 40.75125 28.59625 28902 ft 455 kts 220°
2026-05-05 20:11 40.72669 28.56948 29494 ft 459 kts 220°
2026-05-05 20:12 40.70196 28.54255 30052 ft 463 kts 220°
2026-05-05 20:12 40.67694 28.51534 30575 ft 467 kts 220°
2026-05-05 20:12 40.65169 28.48792 31071 ft 471 kts 220°
2026-05-05 20:12 40.62636 28.46045 31657 ft 472 kts 220°
2026-05-05 20:13 40.60102 28.43299 32301 ft 472 kts 220°
2026-05-05 20:13 40.57570 28.40556 32856 ft 470 kts 220°
2026-05-05 20:13 40.55041 28.37820 33046 ft 468 kts 221°
2026-05-05 20:14 40.50017 28.32388 33069 ft 468 kts 220°
2026-05-05 20:14 40.45010 28.26986 33065 ft 467 kts 221°
2026-05-05 20:15 40.39976 28.21564 33065 ft 467 kts 221°
2026-05-05 20:15 40.34945 28.16159 33067 ft 467 kts 221°
2026-05-05 20:16 40.30089 28.10952 33066 ft 467 kts 221°
2026-05-05 20:16 40.25072 28.05583 33066 ft 467 kts 221°
2026-05-05 20:17 40.20030 28.00197 33068 ft 468 kts 221°
2026-05-05 20:17 40.14983 27.94817 33066 ft 468 kts 221°
2026-05-05 20:18 40.09923 27.89433 33067 ft 468 kts 222°
2026-05-05 20:18 40.04893 27.84093 33068 ft 469 kts 222°
2026-05-05 20:19 39.99827 27.78724 33066 ft 469 kts 223°
2026-05-05 20:19 39.94739 27.73343 33068 ft 470 kts 223°
2026-05-05 20:20 39.89653 27.67973 33078 ft 471 kts 223°
2026-05-05 20:20 39.84587 27.62634 33083 ft 471 kts 223°
2026-05-05 20:21 39.79485 27.57268 33086 ft 472 kts 223°
2026-05-05 20:21 39.74383 27.51918 32859 ft 471 kts 222°
2026-05-05 20:21 39.71617 27.49587 32583 ft 477 kts 211°
2026-05-05 20:22 39.68541 27.47922 31979 ft 484 kts 200°
2026-05-05 20:22 39.65292 27.47024 31104 ft 490 kts 190°
2026-05-05 20:22 39.61932 27.46435 30562 ft 481 kts 190°
2026-05-05 20:22 39.58641 27.45850 29890 ft 475 kts 191°
2026-05-05 20:23 39.55395 27.45258 29305 ft 466 kts 191°
2026-05-05 20:23 39.52247 27.44675 28719 ft 457 kts 191°
2026-05-05 20:23 39.49115 27.44090 28142 ft 449 kts 191°
2026-05-05 20:23 39.46049 27.43515 27571 ft 443 kts 191°
2026-05-05 20:24 39.43016 27.42945 27006 ft 436 kts 191°
2026-05-05 20:24 39.40029 27.42384 26448 ft 433 kts 191°
2026-05-05 20:24 39.36958 27.41802 25871 ft 459 kts 191°
2026-05-05 20:24 39.33874 27.40834 25496 ft 451 kts 203°
2026-05-05 20:25 39.31206 27.39465 25111 ft 442 kts 205°
2026-05-05 20:25 39.28327 27.37941 24447 ft 437 kts 205°
2026-05-05 20:25 39.25527 27.36450 23771 ft 434 kts 205°
2026-05-05 20:25 39.22790 27.34983 23021 ft 429 kts 205°
2026-05-05 20:26 39.20054 27.33518 22250 ft 424 kts 205°
2026-05-05 20:26 39.17345 27.32067 21508 ft 419 kts 205°
2026-05-05 20:26 39.14660 27.30628 20776 ft 415 kts 205°
2026-05-05 20:26 39.12004 27.29205 20069 ft 411 kts 205°
2026-05-05 20:27 39.09395 27.27804 19378 ft 407 kts 205°
2026-05-05 20:27 39.06786 27.26401 18701 ft 403 kts 205°
2026-05-05 20:27 39.04206 27.25008 17991 ft 399 kts 205°
2026-05-05 20:27 39.01610 27.23801 17333 ft 396 kts 194°
2026-05-05 20:28 38.98907 27.23404 16655 ft 395 kts 185°
2026-05-05 20:28 38.96163 27.23145 15967 ft 392 kts 185°
2026-05-05 20:28 38.93452 27.22885 15293 ft 389 kts 185°
2026-05-05 20:28 38.90763 27.22623 14630 ft 385 kts 185°
2026-05-05 20:29 38.88094 27.22359 13983 ft 383 kts 185°
2026-05-05 20:29 38.85454 27.22097 13376 ft 375 kts 185°
2026-05-05 20:29 38.82863 27.21836 12618 ft 374 kts 185°
2026-05-05 20:29 38.80301 27.21573 11955 ft 371 kts 185°
2026-05-05 20:30 38.77742 27.21305 11321 ft 367 kts 185°
2026-05-05 20:30 38.75213 27.21033 10705 ft 364 kts 185°
2026-05-05 20:30 38.72691 27.20753 10109 ft 360 kts 185°
2026-05-05 20:30 38.70208 27.20473 9464 ft 356 kts 185°
2026-05-05 20:31 38.67752 27.20192 8872 ft 351 kts 185°
2026-05-05 20:31 38.65568 27.19942 8612 ft 328 kts 185°
2026-05-05 20:31 38.63376 27.19691 8347 ft 307 kts 185°
2026-05-05 20:31 38.61275 27.19449 8081 ft 299 kts 185°
2026-05-05 20:32 38.59180 27.19208 7998 ft 302 kts 185°
2026-05-05 20:32 38.57321 27.18995 7995 ft 301 kts 185°
2026-05-05 20:32 38.55254 27.18759 7997 ft 302 kts 185°
2026-05-05 20:32 38.53159 27.18787 7996 ft 301 kts 168°
2026-05-05 20:33 38.51123 27.19390 8002 ft 302 kts 165°
2026-05-05 20:33 38.49082 27.20009 7991 ft 301 kts 165°
2026-05-05 20:33 38.47029 27.20631 7996 ft 302 kts 165°
2026-05-05 20:33 38.45007 27.21249 7996 ft 301 kts 165°
2026-05-05 20:34 38.42974 27.21871 7997 ft 301 kts 165°
2026-05-05 20:34 38.40937 27.22496 7995 ft 301 kts 165°
2026-05-05 20:34 38.38891 27.23123 7997 ft 301 kts 165°
2026-05-05 20:34 38.36856 27.23748 7999 ft 301 kts 165°
2026-05-05 20:35 38.34839 27.24366 7999 ft 301 kts 165°
2026-05-05 20:35 38.32801 27.24992 7998 ft 301 kts 165°
2026-05-05 20:35 38.30914 27.25573 7999 ft 301 kts 165°
2026-05-05 20:35 38.28879 27.26199 7997 ft 301 kts 165°
2026-05-05 20:36 38.26837 27.26828 7999 ft 301 kts 165°
2026-05-05 20:36 38.24803 27.27453 7963 ft 299 kts 165°
2026-05-05 20:36 38.22798 27.28071 7838 ft 289 kts 165°
2026-05-05 20:36 38.20900 27.28655 7689 ft 271 kts 165°
2026-05-05 20:37 38.19122 27.29200 7540 ft 254 kts 165°
2026-05-05 20:37 38.18006 27.29541 7441 ft 244 kts 165°
2026-05-05 20:37 38.15849 27.30202 7020 ft 238 kts 165°
2026-05-05 20:37 38.14244 27.30697 6649 ft 233 kts 165°
2026-05-05 20:38 38.12707 27.31172 6024 ft 227 kts 165°
2026-05-05 20:38 38.11178 27.31651 5305 ft 225 kts 165°
2026-05-05 20:38 38.09675 27.32127 4631 ft 220 kts 165°
2026-05-05 20:38 38.08208 27.32593 4091 ft 213 kts 165°
2026-05-05 20:39 38.06728 27.33057 4071 ft 220 kts 165°
2026-05-05 20:39 38.05231 27.33308 4086 ft 221 kts 186°
2026-05-05 20:39 38.03838 27.32557 4147 ft 219 kts 221°
2026-05-05 20:39 38.03017 27.30974 4209 ft 215 kts 253°
2026-05-05 20:40 38.02585 27.29168 4207 ft 209 kts 256°
2026-05-05 20:40 38.02204 27.27487 4014 ft 191 kts 263°
2026-05-05 20:40 38.02450 27.25877 3895 ft 186 kts 304°
2026-05-05 20:40 38.03259 27.24695 3887 ft 186 kts 316°
2026-05-05 20:41 38.04236 27.23629 3893 ft 185 kts 329°
2026-05-05 20:41 38.05381 27.22954 3887 ft 183 kts 342°
2026-05-05 20:41 38.06617 27.22504 3892 ft 183 kts 347°
2026-05-05 20:41 38.07865 27.22126 3893 ft 184 kts 348°
2026-05-05 20:42 38.09092 27.21756 3897 ft 183 kts 348°
2026-05-05 20:42 38.10337 27.21382 3863 ft 183 kts 348°
2026-05-05 20:42 38.11581 27.21008 3676 ft 184 kts 348°
2026-05-05 20:42 38.12828 27.20634 3431 ft 184 kts 348°
2026-05-05 20:43 38.14063 27.20263 3179 ft 182 kts 348°
2026-05-05 20:43 38.15284 27.19896 2936 ft 181 kts 348°
2026-05-05 20:43 38.16516 27.19525 2696 ft 181 kts 348°
2026-05-05 20:43 38.17745 27.19156 2452 ft 181 kts 348°
2026-05-05 20:44 38.18976 27.18786 2201 ft 182 kts 347°
2026-05-05 20:44 38.20135 27.18436 1964 ft 158 kts 347°
2026-05-05 20:44 38.21119 27.18140 1772 ft 133 kts 348°
2026-05-05 20:44 38.21997 27.17876 1599 ft 130 kts 347°
2026-05-05 20:45 38.23719 27.17358 1255 ft 126 kts 347°
2026-05-05 20:45 38.24573 27.17100 1106 ft 126 kts 347°
2026-05-05 20:45 38.25423 27.16845 961 ft 125 kts 346°
2026-05-05 20:46 38.26268 27.16579 746 ft 124 kts 346°
2026-05-05 20:46 38.27110 27.16337 623 ft 124 kts 346°
2026-05-05 20:46 38.27941 27.16083 430 ft 124 kts 347°
2026-05-05 20:46 38.28466 27.15922 416 ft 99 kts 346°
2026-05-05 20:47 38.28941 27.15782 416 ft 42 kts 347°
2026-05-05 20:47 38.29047 27.15751 410 ft 3 kts 347°
2026-05-05 20:47 38.29160 27.15718 414 ft 23 kts 347°
2026-05-05 20:47 38.29333 27.15665 411 ft 28 kts 347°
2026-05-05 20:48 38.29419 27.15606 416 ft 7 kts 285°
2026-05-05 20:48 38.29411 27.15524 419 ft 12 kts 256°
2026-05-05 20:48 38.29386 27.15396 412 ft 18 kts 256°
2026-05-05 20:48 38.29353 27.15218 418 ft 24 kts 257°
2026-05-05 20:49 38.29353 27.15075 419 ft 11 kts 263°
2026-05-05 20:49 38.29341 27.15012 416 ft 0 kts 257°